User: anonymous   Login
Location: Unspecified
(0.0000°N, 0.0000°E)
Time: 06:22:59
(UTC+00:00)
Language:

CHUBUSAT 1 - Orbit

View from above orbital plane
View from above orbital plane
View from above satellite
View from above satellite

Ground track
Ground track

The orbit data is extracted from the following two-line orbital elements,

1 40300U 14070C   18175.79042770  .00000650  00000-0  31795-4 0  9997
2 40300  97.3625 253.3221 0018839 233.6766 247.9662 15.21591367201437
Epoch (UTC): 24 June 2018 18:58:12
Eccentricity: 0.0018839
inclination: 97.3625°
perigee height: 488 km
apogee height: 514 km
right ascension of ascending node: 253.3221°
argument of perigee: 233.6766°
revolutions per day: 15.21591367
mean anomaly at epoch: 247.9662°
orbit number at epoch: 20143

The dashed part of the orbit path shows where the satellite is in the earth's shadow,  

DLR